Overview Statistics Trail Chart Weather Telemetry Raw packets
 

This is the latest recevied weather packets stored in our database for station/object K5KVN. If no packets are shown the sender has not sent any weather packets the latest 10 day(s).

<< 25 26 27 28 29 30 31 >>
Time Temp. Humidity Pressure Rain* Wind** Luminosity Snow
1788305659 36.11° C 38% 1016 hPa 0 mm - - -
1788305059 36.67° C 37% 1016.3 hPa 0 mm - - -
1788304518 36.67° C 37% 1016.2 hPa 0 mm - - -
1788303855 37.22° C 35% 1016.2 hPa 0 mm - - -
1788303255 37.22° C 36% 1016.2 hPa 0 mm - - -
1788302655 37.22° C 35% 1016.1 hPa 0 mm - - -
1788302056 37.78° C 35% 1016.2 hPa 0 mm - - -
1788301456 37.78° C 35% 1016.1 hPa 0 mm - - -
1788300856 38.33° C 35% 1016.2 hPa 0 mm - - -
1788300255 37.78° C 34% 1016.2 hPa 0 mm - - -
1788299111 38.33° C 36% 1016.2 hPa 0 mm - - -
1788298451 38.33° C 36% 1016.2 hPa 0 mm - - -
1788297851 37.78° C 36% 1016.3 hPa 0 mm - - -
1788297251 37.78° C 37% 1016.4 hPa 0 mm - - -
1788296666 38.33° C 37% 1016.5 hPa 0 mm - - -
1788296053 38.33° C 37% 1016.7 hPa 0 mm - - -
1788295452 37.22° C 39% 1016.7 hPa 0 mm - - -
1788294911 36.67° C 40% 1016.9 hPa 0 mm - - -
1788294250 35.56° C 42% 1017.1 hPa 0 mm - - -
1788293651 35.56° C 41% 1017.3 hPa 0 mm - - -
1788293112 36.67° C 40% 1017.3 hPa 0 mm - - -
1788292511 37.78° C 40% 1017.4 hPa 0 mm - - -
1788291851 37.22° C 41% 1017.5 hPa 0 mm - - -
1788291311 37.22° C 40% 1017.7 hPa 0 mm - - -
1788290652 36.67° C 41% 1017.8 hPa 0 mm - - -

* Rain latest hour (hover to see other rain measurements)
** Current wind speed in m/s (hover to see current wind gust speed)